CDT,Max TemperatureF,Mean TemperatureF,Min TemperatureF,Max Dew PointF,MeanDew PointF,Min DewpointF,Max Humidity, Mean Humidity, Min Humidity, Max Sea Level PressureIn, Mean Sea Level PressureIn, Min Sea Level PressureIn, Max VisibilityMiles, Mean VisibilityMiles, Min VisibilityMiles, Max Wind SpeedMPH, Mean Wind SpeedMPH, Max Gust SpeedMPH,PrecipitationIn, CloudCover, Events, WindDirDegrees
2013-6-1,68,63,58,63,54,48,93,73,52,29.96,29.82,29.68,10,10,10,17,9,25,T,3,,287
2013-6-2,64,58,51,50,48,46,83,70,56,30.09,30.04,29.99,10,10,10,15,7,22,0.00,6,,345
2013-6-3,72,60,47,57,51,44,93,75,57,30.07,29.99,29.89,10,10,10,16,7,22,0.00,0,,132
2013-6-4,74,68,61,64,60,56,93,81,68,29.96,29.92,29.86,10,10,5,24,10,31,0.08,4,Rain-Thunderstorm,146
2013-6-5,69,65,61,64,61,59,93,87,81,29.99,29.94,29.90,10,7,1,16,5,22,0.87,7,Rain-Thunderstorm,15
2013-6-6,75,66,57,61,54,49,97,71,44,29.96,29.93,29.90,10,10,6,15,6,20,0.00,3,,341
2013-6-7,75,65,55,55,51,48,86,64,41,30.00,29.95,29.90,10,10,10,15,5,20,0.00,3,,14
2013-6-8,78,66,54,61,56,51,93,73,52,29.93,29.86,29.76,10,10,3,22,9,29,0.35,1,Rain,172
2013-6-9,80,71,61,63,59,48,97,66,35,29.86,29.82,29.75,10,8,1,18,8,41,0.13,4,Rain-Thunderstorm,236
2013-6-10,85,73,61,63,58,55,78,58,37,29.88,29.84,29.81,10,10,10,12,5,16,0.00,0,,237
2013-6-11,92,81,69,69,65,61,90,63,36,29.90,29.84,29.78,10,10,5,22,11,32,0.02,0,Rain-Thunderstorm,193
2013-6-12,93,83,72,69,67,59,82,63,44,29.90,29.78,29.75,10,10,10,24,13,35,0.00,0,,231
2013-6-13,84,74,63,62,58,53,78,61,43,30.04,29.99,29.93,10,10,10,20,7,38,0.00,0,,31
2013-6-14,87,76,65,73,67,62,87,73,59,30.00,29.94,29.86,10,10,10,20,10,26,0.00,2,,139
2013-6-15,89,76,63,73,68,63,93,75,57,30.02,29.94,29.88,10,7,0,49,9,62,2.16,4,Fog-Rain-Thunderstorm,177
2013-6-16,84,75,66,72,69,64,100,85,69,29.97,29.93,29.89,10,7,4,10,4,14,0.00,6,,105
2013-6-17,79,72,65,70,66,61,93,76,58,30.01,29.95,29.88,10,10,7,16,3,23,0.01,4,Rain-Thunderstorm,155
2013-6-18,85,74,63,67,64,59,100,74,48,30.01,29.98,29.96,10,10,7,13,4,22,0.03,1,Rain-Thunderstorm,313
2013-6-19,84,74,63,69,65,62,100,76,51,30.03,29.99,29.94,10,9,2,15,7,20,0.00,0,,142
2013-6-20,87,77,67,73,69,65,93,77,61,30.00,29.95,29.88,10,10,10,23,12,29,0.00,0,,160
2013-6-21,90,82,74,73,71,69,87,70,52,29.96,29.93,29.89,10,10,9,23,12,32,0.00,0,,182
2013-6-22,89,81,72,71,69,66,84,67,50,29.99,29.91,29.84,10,10,8,23,13,32,0.00,1,,184
2013-6-23,89,81,72,73,70,67,93,74,55,29.93,29.88,29.78,10,10,8,28,10,37,0.00,1,,179
2013-6-24,89,82,75,70,68,65,79,64,48,29.96,29.88,29.80,10,10,9,25,14,32,T,1,Rain-Thunderstorm,192
2013-6-25,87,81,74,72,69,66,93,75,57,29.88,29.78,29.70,10,10,6,26,14,37,0.04,1,Rain,193
2013-6-26,99,87,74,72,66,55,82,54,25,29.86,29.78,29.70,10,10,8,15,7,22,0.00,0,,286
2013-6-27,88,79,70,76,68,64,84,73,61,30.03,29.92,29.82,10,9,2,7,3,16,0.20,2,Rain-Thunderstorm,60
2013-6-28,88,78,68,70,63,54,100,68,35,29.96,29.91,29.85,10,8,0,22,8,29,0.01,2,Fog-Rain,320
2013-6-29,85,75,64,58,55,50,73,53,33,29.89,29.84,29.79,10,10,10,28,13,39,0.00,2,,328
2013-6-30,80,71,61,58,55,52,78,61,43,30.02,29.95,29.87,10,10,10,20,10,31,0.00,2,,10